Regional Weather Roundup
Issued by NWS

Home | Current Version | Previous Version | Text Only | Print | Product List | Glossary On
Versions: 1 2 3 4 5 6 7 8 9 10 11 12 13 14 15 16 17 18 19 20 21 22 23 24 25 26 27 28 29 30 31 32 33 34 35 36 37 38 39 40 41 42 43 44 45 46 47 48 49 50
000
ASUS43 KLSX 201407
RWRMO

WEATHER SUMMARY FOR MISSOURI
NATIONAL WEATHER SERVICE SPRINGFIELD MO
800 AM CST FRI JAN 20 2017

NOTE: "FAIR" INDICATES FEW OR NO CLOUDS BELOW 12,000 FEET WITH NO
       SIGNIFICANT WEATHER AND/OR OBSTRUCTIONS TO VISIBILITY.
       CURRENT SKY AND/OR WEATHER CONDITIONS ARE NOT AVAILABLE FOR
       CHILLICOTHE AND FARMINGTON.

MOZ001>031-035>038-043-044-053-054-201500-
...NORTHERN AND WESTERN MISSOURI...

CITY           SKY/WX    TMP DP  RH WIND       PRES   REMARKS
KANSAS CTY INT FOG       44  42  93 SE5       29.57R VSB 1/4
KANSAS C DTWN  CLOUDY    47  46  97 E5        29.57R
LEE`S SUMMIT   FOG       45  45 100 SE3       29.58R VSB<1/4
ST JOSEPH      FOG       42  42 100 CALM      29.58S VSB 3/4
CHILLICOTHE      N/A     42  41  96 NE7       29.59F
KIRKSVILLE     FOG       40  40 100 SE5       29.62R VSB<1/4

$$
MOZ066>068-077>081-088>096-101>105-201500-
...SOUTHWEST MISSOURI...

CITY           SKY/WX    TMP DP  RH WIND       PRES   REMARKS
SPRINGFIELD    CLOUDY    48  47  96 SE8       29.58F
JOPLIN         CLOUDY    49  48  97 E7        29.55F
BRANSON        CLOUDY    45  45 100 SE10      29.61F FOG

$$
MOZ032>034-039>042-045>050-055>058-069>072-201500-
...CENTRAL MISSOURI...

CITY           SKY/WX    TMP DP  RH WIND       PRES   REMARKS
COLUMBIA       FOG       46  46 100 SE5       29.61R VSB 1/2
JEFFERSON CITY CLOUDY    47  47 100 E5        29.62R
ROLLA          CLOUDY    46  45  96 SE3       29.61R
SEDALIA        FOG       45  45 100 SE3       29.60R VSB<1/4
WHITEMAN AFB   FOG       45  45 100 SE5       29.58R VSB 1/4
WARRENSBURG    FOG       43  43 100 SE5       29.58S VSB 1/4
OSAGE BEACH    FOG       46  45  96 S6        29.63R VSB 1/4

$$
MOZ051-052-059>065-201500-
...EAST CENTRAL MISSOURI...

CITY           SKY/WX    TMP DP  RH WIND       PRES   REMARKS
ST LOUIS INTL  CLOUDY    50  48  93 S3        29.64S
SPIRIT OF STL  CLOUDY    47  47 100 CALM      29.63S
ST CHARLES     FOG       45  45 100 SE3       29.64R VSB 3/4

$$
MOZ072>076-082>087-097>100-106>115-201500-
...SOUTH CENTRAL AND SOUTHEAST MISSOURI...

CITY           SKY/WX    TMP DP  RH WIND       PRES   REMARKS
CAPE GIRARDEAU CLOUDY    51  48  89 S5        29.70R
FARMINGTON     CLOUDY    48  47  96 S7        29.68R
POPLAR BLUFF   CLOUDY    50  50 100 S3        29.69R
WEST PLAINS    CLOUDY    49  47  93 E3        29.65F FOG

$$



USA.gov is the U.S. government's official web portal to all federal, state and local government web resources and services.